PROFILE

 METAR AND TAF INFORMATION
ADDS - METARS form results

(0352 UTC 13 July 2020)
http://aviationweather.gov/metar/data/
 
DTMB 130330Z 00000KT 8000 NSC 24/24 Q1014 NOSIG
DTMB 130300Z 03004KT 8000 NSC 24/24 Q1014 NOSIG
TAF DTMB 122300Z 1300/1324 36002KT CAVOK PROB30 TEMPO 1302/1305 2000 BR BECMG 1310/1312 09010KT BECMG 1319/1321 02003KT 

 AIRPORT MAP

 RUNWAY INFORMATION
Runway 07 Runway length 9678 ft Runway width 148 ft
Runway elevation 8 ft Runway displaced threshold 0 ft Runway heading 74
Runway 25 Runway length 9678 ft Runway width 148 ft
Runway elevation 8 ft Runway displaced threshold 0 ft Runway heading 254

 AIRPORT FREQUENCIES
Type APP Name BOURGUIBA Frequency 119.3 MHZ
Type ATIS Name MONASTIR A Frequency 113.1 MHZ
Type TWR Name BOURGUIBA Frequency 118.3 MHZ

 AIRPORT NEAR NAVIGATION AIDS
Type VOR-DME Name Monastir Frequency 113100 KHZ